Location: Newark
(35.6799°N, 139.7636°E)
Time: 22:52:25
(UTC+00:00)

Courier 1B Rocket - Pass Details

Date: 15 December 2019
Orbit: 920 x 1202 km, 28.2° (Epoch: 20 January)

Event Time Altitude Azimuth Distance (km) Brightness Sun altitude
Exits shadow 21:00:59 - 258° (WSW) 3,620 7.5 -8.6°
Reaches altitude 10° 21:03:01 10° 254° (WSW) 2,939 7.0 -8.2°
Maximum altitude 21:09:47 46° 184° (S) 1,366 6.0 -7.0°
Drops below altitude 10° 21:16:06 10° 113° (ESE) 2,740 9.3 -5.8°
Sets 21:18:47 0° 107° (ESE) 3,652 10.4 -5.3°
